www.pogodaiklimat.ru

Погода и климат >> Архив погоды >> Мексика >> Tuxpan


ПОГОДА в Tuxpan

  • Прогноз погоды в Tuxpan
  • Монитор погоды в Tuxpan
  • Климат города

АРХИВ ПОГОДЫ в Tuxpan

Время (UTC), дата Ветер
(напр.,м/с)
 
Видим.   Явления Облачность Т
(С)
Тd
(С)
f
(%)
Тe
(С)
Тes
(С)
Комфортность P
(гПа)
Po
(гПа)
Тmin
(С)
Tmax
(С)
R
(мм)
R24
(мм)
S
(см)
09 15.10 штиль 0 1000 м 6/4 60 м
[Cu med, cong As op]
+26.6 +26.0 97 +40 +40 очень
душно
1012.1 1011.0
12 15.10 штиль 0 1000 м в посл. час гроза 8/4 50 м
[Cb cap As op]
+28.2 +27.6 97 +46 +46 опасность
перегрева
1010.4 1009.3 0.0
15 15.10 Ю 2 8000 м 4/3 210 м
[Cu hum Cs]
+29.4 +27.8 91 +48 +52 опасность
перегрева
1012.1 1010.9
18 15.10 ЮВ 3 8000 м 4/3 450 м
[Cu hum Ci]
+32.6 +29.1 82 +56 +65 опасность
перегрева
1011.8 1010.6 +25.4 +33.8
21 15.10 ЮВ 3 8000 м 4/3 330 м
[Cu med, cong Ci]
+32.4 +29.8 86 +58 +64 опасность
перегрева
1010.1 1009.0
00 16.10 ЮВ 3 8000 м 4/1 200 м
[Cu med, cong Cs]
+30.4 +28.8 91 +52 +52 опасность
перегрева
1009.8 1008.7 +25.4 +34.2
03 16.10 В 2 1000 м зарница 5/3 180 м
[Cb cap As trans]
+29.4 +28.1 93 +49 +49 опасность
перегрева
1013.1 1012.0
06 16.10 В 2 1000 м {гроза} 8/4 150 м
[Frnb As trans]
+28.8 +27.7 94 +47 +47 опасность
перегрева
1013.5 1012.4 +25.4 +34.2
09 16.10 СВ 2 1000 м в посл. час гроза 10/5 60 м
[Cb cap As op]
+24.8 +24.5 98 +35 +35 очень
душно
1014.8 1013.6 20
12 16.10 С 3 1000 м слабая морось {гроза} 10/4 50 м
[Frnb As op]
+22.8 +22.5 98 +31 +31 очень
душно
1016.2 1015.1 35
15 16.10 ЮЗ 3 8000 м слабая морось {дождь} 10/4 60 м
[Frnb As op]
+20.6 +20.3 98 +25 +26 комфорт 1018.2 1017.1 11
18 16.10 ЮЗ 3 8000 м {морось} 10/4 100 м
[Frnb As op]
+21.4 +20.2 93 +27 +28 душно 1019.0 1017.8 11
21 16.10 ЮЗ 3 8000 м 10/4 150 м
[Frnb As op]
+21.2 +20.0 93 +26 +27 душно 1016.6 1015.4
00 17.10 ЮЗ 2 6000 м {морось} 10/4 50 м
[Frnb As op]
+20.0 +19.4 96 +24 +24 комфорт 1017.5 1016.3 0.5
03 17.10 ЮЗ 2 1000 м слабая морось 10/5 90 м
[Frnb As op]
+19.8 +19.2 96 +23 +23 комфорт 1018.2 1017.0 0.0
12 17.10 ЮЗ 3 1000 м слабый дождь 10/5 50 м
[Frnb As op]
+17.2 +16.5 96 +17 +17 1022.1 1020.9 5
15 17.10 СЗ 2 8000 м дождь {морось} 10/5 60 м
[Frnb As op]
+16.6 +16.3 98 +17 +17 1022.9 1021.7 6
18 17.10 ЮЗ 2 8000 м морось 10/6 50 м
[St As op]
+17.4 +16.7 96 +18 +19 1022.3 1021.1 8
21 17.10 ЮЗ 2 8000 м дождь {морось} 10/5 90 м
[Frnb As op]
+18.0 +17.4 96 +19 +19 1019.6 1018.4 4
00 18.10 ЮЗ 2 8000 м морось {дождь} 10/5 50 м
[Frnb As op]
+18.0 +17.4 96 +19 +19 1020.0 1018.9 9
03 18.10 ЮЗ 2 1000 м слабый дождь 10/5 90 м
[Frnb As op]
+17.6 +16.9 96 +18 +18 1020.7 1019.5 3
12 18.10 ЮЗ 1 1000 м дождь {морось} 10/5 50 м
[Frnb As op]
+15.0 +14.6 97 +15 +15 1021.9 1020.7 6
15 18.10 ЮЗ 2 8000 м слабая морось 10/6 210 м
[St As op]
+17.4 +15.8 90 +18 +18 1022.4 1021.2 0.6
18 18.10 ЮЗ 2 8000 м дождь {морось} 10/5 100 м
[Frnb As op]
+19.2 +17.9 92 +22 +23 комфорт 1021.4 1020.2 3
21 18.10 ЮЗ 2 8000 м 10/5 180 м
[St As op]
+20.2 +18.9 92 +24 +25 комфорт 1019.2 1018.0
00 19.10 ЮЗ 2 7000 м 10/5 100 м
[Sc diur, vesp As op]
+20.4 +19.4 94 +25 +25 комфорт 1019.8 1018.6 +14.6 +21.2
03 19.10 ЮЗ 3 1000 м слабая морось 10/5 90 м
[Sc As op]
+19.8 +19.2 96 +23 +23 комфорт 1020.5 1019.3 0.6
09 19.10 ЮЗ 4 1000 м дождь 10/5 90 м
[Sc As op]
+18.0 +17.3 96 +18 +18 1022.6 1021.4 4
12 19.10 ЮЗ 3 1000 м дождь 10/5 50 м
[Sc As op]
+17.0 +16.3 96 +17 +17 1022.6 1021.4 11
15 19.10 СЗ 2 8000 м слабая морось {дождь} 10/6 60 м
[Frnb As op]
+18.4 +18.1 98 +20 +20 1021.2 1020.0 9
18 19.10 СЗ 2 8000 м слабая морось 10/5 100 м
[Frnb As op]
+20.0 +19.1 95 +24 +25 комфорт 1020.0 1018.8 9
21 19.10 СЗ 2 8000 м 10/5 240 м
[Frnb As op]
+21.8 +20.0 90 +27 +28 душно 1018.1 1016.9
00 20.10 СЗ 2 8000 м 10/4 200 м
[Frnb As op]
+21.6 +19.8 89 +27 +27 душно 1017.5 1016.3 +16.8 +23.8
03 20.10 СЗ 1 1000 м 10/4 60 м
[Frnb As op]
+20.4 +19.8 96 +26 +26 душно 1018.9 1017.7
06 20.10 СЗ 2 1000 м слабая морось 10/5 <50 м
[Frnb As op]
+20.2 +19.9 98 +25 +25 комфорт 1018.8 1017.6 0.5
09 20.10 С 1 1000 м морось {дождь} 10/5 60 м
[Sc As op]
+20.8 +20.2 96 +27 +27 душно 1017.6 1016.4 15
12 20.10 С 1 1000 м {морось} 8/4 50 м
[Sc As op]
+21.6 +21.0 96 +27 +27 душно 1017.7 1016.5 17
15 20.10 СЗ 2 8000 м {морось} 10/6 120 м
[Sc As op]
+22.4 +21.5 95 +30 +30 очень
душно
1018.9 1017.7 0.0
18 20.10 СЗ 2 8000 м слабая морось 10/5 200 м
[Frnb As op]
+24.6 +22.9 90 +33 +34 очень
душно
1018.5 1017.3 0.2
21 20.10 СЗ 2 8000 м {морось} 10/4 270 м
[Sc As op]
+25.0 +23.0 89 +33 +34 очень
душно
1016.4 1015.2 0.8
00 21.10 СЗ 3 8000 м 10/5 100 м
[Frnb As op]
+24.4 +23.0 92 +32 +32 очень
душно
1016.8 1015.6 0.8
03 21.10 СЗ 2 1000 м дождь 10/5 60 м
[Frnb As op]
+23.8 +23.2 96 +32 +32 очень
душно
1018.4 1017.2 75
06 21.10 СЗ 1 1000 м в посл. час гроза {дождь} 10/4 50 м
[Cb cap As op]
+23.6 +23.0 96 +31 +31 очень
душно
1018.3 1017.1 144
12 21.10 С 2 1000 м морось 10/5 50 м
[Frnb As op]
+22.4 +22.1 98 +30 +30 очень
душно
1018.1 1016.9 34
15 21.10 штиль 0 50 км слабый дождь ?/? +22.8 +22.2 96 +31 +31 очень
душно
1019.3 1018.2 8
18 21.10 ЮЗ 2 8000 м слабая морось {дождь} 10/6 100 м
[Frnb As op]
+24.0 +22.8 93 +32 +33 очень
душно
1018.3 1017.2 8
21 21.10 З 2 8000 м дождь 10/8 60 м
[Frnb As op]
+23.4 +23.1 98 +33 +33 очень
душно
1016.7 1015.6 8
00 22.10 ЮЗ 2 7000 м дождь 10/6 50 м
[Frnb As op]
+22.6 +22.3 98 +30 +30 очень
душно
1017.4 1016.2 20
03 22.10 СЗ 2 1000 м дождь {морось} 10/6 30 м
[Frnb As op]
+22.4 +22.1 98 +30 +30 очень
душно
1017.8 1016.6 4

 

Местоположение метеостанции Tuxpan (Мексика): широта 20.95 долгота -97.40 высота над уровнем моря 28 м.

В архиве по умолчанию представлена погода в Tuxpan за последнюю неделю. Архивные данные за месяц целиком и за предыдущие месяцы, начиная с января 2011 года, Вы можете получить, выбрав интересующий диапазон дат из раскрывающегося списка и нажав кнопку "Ввод!".


*Определитесь, кто Вы:
робот инопланетянин человек

Внимание! Время в таблицах - всемирное. Для получения местного времени необходимо прибавить поправку, которая в Tuxpan равна -6 ч.

Смотрите также архив погоды в соседних городах и на ближайших метеорологических станциях:

Погода в Tulancingo (Мексика) (140 км)
Погода в Tampico (Мексика) (147 км)
Погода в Matlapa (Мексика) (152 км)
Погода в Jalapa (Мексика) (164 км)
Погода в Pachuca (Мексика) (168 км)
Погода в Tamuin (Мексика) (183 км)
Погода в Tlaxcala (Мексика) (202 км)
Погода в Tlaxcala Airport (Мексика) (202 км)
Погода в Puebla (Мексика) (226 км)
Погода в Cordoba-In-Veracruz (Мексика) (233 км)

Пояснения к столбцам:

Ветер - указаны скорость ветра в м/с - средняя за 10 мин, порывы в срок и между сроками (в фигурных скобках) и направление, откуда дует ветер: С - северный, СВ - северо-восточный, В - восточный, ЮВ - юго-восточный, Ю - южный, ЮЗ - юго-западный, З - западный, СЗ - северо-западный.
Видимость - горизонтальная дальность видимости в метрах или километрах. При видимости от 1 до 10 км при отсутствии осадков обычно наблюдается дымка, при ухудшении видимости до 1 км и менее - туман. В сухую погоду видимость может ухудшаться дымом, пылью или мглою.
Явления - указаны атмосферные явления, наблюдавшиеся в срок или в последний час перед сроком; фигурными скобками обозначены явления, наблюдавшиеся между сроками (за 1-3 часа до срока); квадратными скобками обозначены град или гололедные отложения с указанием их диаметра в мм.
Облачность - указаны через наклонную черту общая и нижняя облачность в баллах и высота нижней границы облаков в метрах; квадратными скобками обозначены формы облаков: Ci - перистые, Cs - перисто-слоистые, Cc - перисто-кучевые, Ac - высококучевые, As - высокослоистые, Sc - слоисто-кучевые, Ns - слоисто-дождевые, Cu - кучевые, Cb - кучево-дождевые. Подробнее классификацию облаков см. в Атласе облаков (PDF).
T - Температура воздуха - температура, измеренная на высоте 2 м над землей.
Td - Температура точки росы - температура, при понижении до которой содержащийся в воздухе водяной пар достигнет насыщения.
f - Относительная влажность воздуха - влажноcть воздуха, измеренная на высоте 2 м над землей.
Te - Эффективная температура - температура, которую ощущает одетый по сезону человек в тени. Характеристика душности погоды. При расчете учитывается влияние влажности воздуха и скорости ветра на теплоощущения человека.
Tes - Эффективная температура на солнце - температура, которую ощущает человек, с поправкой на солнечный нагрев. Характеристика знойности погоды. Зависит от высоты солнца над горизонтом, облачности и скорости ветра. Ночью, в пасмурную погоду, а также при ветре 12 м/с и более поправка равна нулю.
P - Атмосферное давление - приведенное к уровню моря атмосферное давление.
Po - Атмосферное давление - измеренное на уровне метеостанции атмосферное давление.
Tmin - Минимальная температура - минимум температуры воздуха на высоте 2 м над землей.
Tmax - Максимальная температура - максимум температуры воздуха на высоте 2 м над землей.
R - Количество осадков - Количество выпавших осадков за период времени, мм. При наведении курсора мыши на число - период времени, за который выпало указанное количество осадков.
R24 - Количество осадков - Количество выпавших осадков за 24 часа, мм.
S - Снежный покров - Высота снежного покрова, см. При наведении курсора мыши на число - состояние снежного покрова и степень покрытия местности в баллах.